TimeEDT,TemperatureF,Dew PointF,Humidity,Sea Level PressureIn,VisibilityMPH,Wind Direction,Wind SpeedMPH,Gust SpeedMPH,PrecipitationIn,Events,Conditions,WindDirDegrees,DateUTC
12:14 AM,41.5,31.5,67,30.32,10.0,North,10.4,-,N/A,,Overcast,10,2012-10-28 04:14:00
12:34 AM,41.5,32.0,69,30.32,10.0,North,11.5,17.3,N/A,,Overcast,10,2012-10-28 04:34:00
12:54 AM,41.4,31.1,67,30.33,10.0,North,12.7,-,N/A,,Overcast,360,2012-10-28 04:54:00
1:14 AM,41.2,30.6,66,30.33,10.0,North,11.5,18.4,N/A,,Overcast,360,2012-10-28 05:14:00
1:34 AM,41.4,30.2,65,30.33,10.0,North,13.8,20.7,N/A,,Overcast,360,2012-10-28 05:34:00
2:14 AM,41.2,28.2,60,30.33,10.0,North,11.5,19.6,N/A,,Scattered Clouds,10,2012-10-28 06:14:00
2:34 AM,41.5,29.1,61,30.34,10.0,North,13.8,19.6,N/A,,Mostly Cloudy,10,2012-10-28 06:34:00
2:54 AM,41.4,28.2,60,30.34,10.0,North,13.8,-,N/A,,Mostly Cloudy,360,2012-10-28 06:54:00
3:14 AM,41.2,28.4,60,30.34,10.0,North,11.5,17.3,N/A,,Mostly Cloudy,360,2012-10-28 07:14:00
3:34 AM,41.2,26.4,56,30.34,10.0,North,15.0,-,N/A,,Mostly Cloudy,10,2012-10-28 07:34:00
3:53 AM,41.0,25.9,55,30.35,10.0,NNE,10.4,17.3,N/A,,Scattered Clouds,30,2012-10-28 07:53:00
4:14 AM,41.4,24.6,51,30.34,10.0,NNE,10.4,-,N/A,,Mostly Cloudy,20,2012-10-28 08:14:00
4:33 AM,41.5,24.1,50,30.34,10.0,NE,12.7,17.3,N/A,,Mostly Cloudy,40,2012-10-28 08:33:00
4:54 AM,41.0,27.3,58,30.34,10.0,NE,5.8,-,N/A,,Overcast,50,2012-10-28 08:54:00
5:14 AM,41.0,28.0,60,30.34,10.0,NE,8.1,-,N/A,,Overcast,40,2012-10-28 09:14:00
5:34 AM,41.0,27.0,57,30.35,10.0,NNE,11.5,-,N/A,,Overcast,20,2012-10-28 09:34:00
5:54 AM,41.0,26.2,56,30.36,10.0,NE,6.9,-,N/A,,Overcast,40,2012-10-28 09:54:00
6:14 AM,41.0,26.2,56,30.37,10.0,NE,8.1,-,N/A,,Overcast,50,2012-10-28 10:14:00
6:34 AM,41.4,24.8,52,30.37,10.0,NNE,8.1,-,N/A,,Overcast,30,2012-10-28 10:34:00
6:54 AM,41.2,25.2,53,30.36,10.0,North,9.2,-,N/A,,Overcast,360,2012-10-28 10:54:00
7:14 AM,41.2,23.9,50,30.36,10.0,NE,6.9,-,N/A,,Overcast,40,2012-10-28 11:14:00
7:34 AM,40.3,26.6,58,30.36,10.0,NE,8.1,-,N/A,,Overcast,50,2012-10-28 11:34:00
7:54 AM,40.1,27.0,59,30.36,10.0,NE,5.8,-,N/A,,Overcast,40,2012-10-28 11:54:00
8:14 AM,40.8,26.2,56,30.36,10.0,NNE,8.1,-,N/A,,Overcast,30,2012-10-28 12:14:00
8:33 AM,41.4,27.1,57,30.37,10.0,NNE,6.9,-,N/A,,Overcast,30,2012-10-28 12:33:00
8:54 AM,42.1,26.8,55,30.37,10.0,North,10.4,17.3,N/A,,Overcast,360,2012-10-28 12:54:00
9:14 AM,42.8,27.3,54,30.37,10.0,North,9.2,17.3,N/A,,Overcast,10,2012-10-28 13:14:00
9:34 AM,43.5,26.2,51,30.37,10.0,North,11.5,17.3,N/A,,Overcast,10,2012-10-28 13:34:00
9:54 AM,42.8,26.1,52,30.37,10.0,NNE,9.2,-,N/A,,Overcast,30,2012-10-28 13:54:00
10:14 AM,42.8,26.8,53,30.37,10.0,ENE,9.2,-,N/A,,Mostly Cloudy,60,2012-10-28 14:14:00
10:34 AM,43.2,26.2,51,30.37,10.0,ENE,9.2,-,N/A,,Overcast,60,2012-10-28 14:34:00
11:14 AM,43.9,25.9,49,30.37,10.0,NNE,11.5,-,N/A,,Scattered Clouds,30,2012-10-28 15:14:00
11:34 AM,43.7,25.9,50,30.37,10.0,NE,9.2,19.6,N/A,,Clear,50,2012-10-28 15:34:00
11:54 AM,43.7,26.4,51,30.35,10.0,NE,9.2,-,N/A,,Clear,40,2012-10-28 15:54:00
12:14 PM,45.5,27.5,49,30.35,10.0,North,12.7,-,N/A,,Clear,360,2012-10-28 16:14:00
12:34 PM,45.3,27.3,49,30.35,10.0,NE,11.5,17.3,N/A,,Clear,40,2012-10-28 16:34:00
12:54 PM,44.6,27.7,52,30.35,10.0,NNE,10.4,17.3,N/A,,Mostly Cloudy,30,2012-10-28 16:54:00
1:14 PM,44.6,28.0,52,30.34,10.0,NNE,10.4,-,N/A,,Scattered Clouds,20,2012-10-28 17:14:00
1:34 PM,45.5,28.4,51,30.34,10.0,North,13.8,-,N/A,,Clear,360,2012-10-28 17:34:00
1:54 PM,45.7,28.4,51,30.33,10.0,NNE,13.8,-,N/A,,Clear,20,2012-10-28 17:54:00
2:14 PM,45.9,28.0,50,30.33,10.0,North,12.7,17.3,N/A,,Clear,360,2012-10-28 18:14:00
2:34 PM,45.0,28.6,53,30.33,10.0,North,12.7,16.1,N/A,,Clear,360,2012-10-28 18:34:00
2:54 PM,45.7,29.7,54,30.33,10.0,North,12.7,17.3,N/A,,Clear,10,2012-10-28 18:54:00
3:14 PM,45.1,29.8,55,30.33,10.0,North,12.7,19.6,N/A,,Clear,10,2012-10-28 19:14:00
3:34 PM,45.3,29.3,54,30.33,10.0,North,11.5,18.4,N/A,,Clear,360,2012-10-28 19:34:00
3:53 PM,45.5,28.8,52,30.32,10.0,North,11.5,20.7,N/A,,Clear,360,2012-10-28 19:53:00
4:14 PM,45.1,29.1,54,30.31,10.0,North,12.7,19.6,N/A,,Clear,10,2012-10-28 20:14:00
4:34 PM,45.3,29.3,54,30.32,10.0,North,12.7,18.4,N/A,,Clear,360,2012-10-28 20:34:00
4:54 PM,45.0,29.7,55,30.31,10.0,North,12.7,17.3,N/A,,Clear,360,2012-10-28 20:54:00
5:14 PM,44.4,29.7,56,30.32,10.0,NNW,9.2,-,N/A,,Clear,340,2012-10-28 21:14:00
5:34 PM,44.6,29.7,56,30.31,10.0,North,10.4,-,N/A,,Scattered Clouds,10,2012-10-28 21:34:00
5:54 PM,45.0,29.3,54,30.31,10.0,North,10.4,-,N/A,,Scattered Clouds,10,2012-10-28 21:54:00
6:14 PM,44.6,28.6,53,30.31,10.0,North,13.8,18.4,N/A,,Mostly Cloudy,360,2012-10-28 22:14:00
6:34 PM,44.6,29.8,56,30.31,10.0,North,13.8,-,N/A,,Scattered Clouds,10,2012-10-28 22:34:00
6:54 PM,44.6,29.5,55,30.31,10.0,North,11.5,20.7,N/A,,Scattered Clouds,10,2012-10-28 22:54:00
7:14 PM,44.1,29.5,57,30.32,10.0,NNE,10.4,20.7,N/A,,Scattered Clouds,20,2012-10-28 23:14:00
7:34 PM,44.6,29.5,55,30.32,10.0,NNE,15.0,19.6,N/A,,Scattered Clouds,20,2012-10-28 23:34:00
7:54 PM,44.1,28.6,55,30.32,10.0,NNE,12.7,-,N/A,,Scattered Clouds,30,2012-10-28 23:54:00
8:14 PM,44.1,30.4,59,30.32,10.0,North,11.5,20.7,N/A,,Scattered Clouds,10,2012-10-29 00:14:00
8:34 PM,43.7,30.4,59,30.32,10.0,NNE,16.1,19.6,N/A,,Mostly Cloudy,20,2012-10-29 00:34:00
9:34 PM,42.8,30.6,62,30.32,10.0,NNE,15.0,23.0,N/A,,Scattered Clouds,20,2012-10-29 01:34:00
9:54 PM,42.3,31.6,66,30.33,10.0,NNE,15.0,20.7,N/A,,Scattered Clouds,20,2012-10-29 01:54:00
10:14 PM,42.1,31.1,65,30.32,10.0,NNE,15.0,20.7,N/A,,Scattered Clouds,20,2012-10-29 02:14:00
10:33 PM,42.4,31.8,66,30.32,10.0,North,13.8,-,N/A,,Scattered Clouds,10,2012-10-29 02:33:00
10:54 PM,42.4,32.2,67,30.32,10.0,NNE,12.7,18.4,N/A,,Scattered Clouds,20,2012-10-29 02:54:00
11:14 PM,42.8,32.5,67,30.32,10.0,NNE,15.0,19.6,N/A,,Mostly Cloudy,20,2012-10-29 03:14:00
11:33 PM,42.8,32.5,67,30.32,10.0,North,12.7,19.6,N/A,,Mostly Cloudy,10,2012-10-29 03:33:00
11:54 PM,43.0,32.2,66,30.31,10.0,NNE,15.0,19.6,N/A,,Mostly Cloudy,20,2012-10-29 03:54:00